Preview of NWS' New Version of Forecast
This preview is not operational and should not be used for support decisions.

Regional Weather Roundup (RWR)

Issued by National Weather Service (NWS)

                            
000
ASUS44 KJAN 231710
RWRMS 

MISSISSIPPI HOURLY WEATHER ROUNDUP
NATIONAL WEATHER SERVICE JACKSON MS
1200 PM CDT SUN JUN 23 2019

NOTE: "FAIR: INDICATES FEW OR NO CLOUDS BELOW 12,000 FEET WITH NO
SIGNIFICANT WEATHER AND/OR OBSTRUCTIONS TO VISIBILITY.

MSZ001>002-007>008-010>013-018>021-025>028-034>036-231800-
NORTHWEST MISSISSIPPI
  
CITY           SKY/WX    TMP DP  RH WIND       PRES   REMARKS
BATESVILLE     FAIR      88  75  66 SW15G22   29.97S HX  97           
CLARKSDALE     MOSUNNY   91  77  62 S15G22    29.97R HX 105           
CLEVELAND      PTSUNNY   86  75  70 S16G23    29.97S HX  95           
GREENWOOD      FAIR      88  74  63 S17       29.99F HX  96           
GREENVILLE     FAIR      89  75  63 S16G25    29.96S HX  99           
OLIVE BRANCH   PTSUNNY   86  73  66 S16G23    29.96F HX  93           
OXFORD         FAIR      84  72  65 S13G18    30.00F                  
TUNICA           N/A     88  73  62 SW17G25   29.96R HX  96           
WINONA         FAIR      87  72  61 S14G22    30.02S HX  92           
$$

MSZ003>006-009-014>017-022>024-029>033-037>039-231800-
NORTHEAST MISSISSIPPI
  
CITY           SKY/WX    TMP DP  RH WIND       PRES   REMARKS
ABERDEEN       FAIR      88  79  74 S12G18    30.03F HX 102           
COLUMBUS AFB   FAIR      90  75  62 SW9       30.02F HX 100           
CORINTH        PTSUNNY   88  72  58 S12       29.99F HX  94           
GOLDN TRIANGLE PTSUNNY   90  76  63 S12       30.03F HX 101           
STARKVILLE     FAIR      88  73  62 S8        30.03F HX  96           
TUPELO         FAIR      90  72  55 SW9G18    30.01S HX  97           
$$

MSZ040-058-231800-
CENTRAL MISSISSIPPI
  
CITY           SKY/WX    TMP DP  RH WIND       PRES   REMARKS
JACKSON INTL   FAIR      89  72  56 SW13G26   30.01F HX  96           
JACKSON HAWKNS PTSUNNY   90  75  61 S15G22    30.02S HX 100           
MADISON        FAIR      88  77  70 S13G20    30.01S HX 100           
MERIDIAN KEY   FAIR      92  72  51 S8        30.04F HX  99           
MERIDIAN NAS   FAIR      91  70  49 SW8       30.04F HX  96           
RAYMOND          N/A     90  77  66 SW10G20   30.00F HX 102           
VICKSBURG VKS  MOSUNNY   90  77  66 SW9G18    29.99F HX 102           
$$

MSZ059>079-231800-
SOUTH MISSISSIPPI
  
CITY           SKY/WX    TMP DP  RH WIND       PRES   REMARKS
BROOKHAVEN     FAIR      91  75  59 E12G20    30.04S HX 102           
HATTIESBURG    FAIR      92  72  51 S10       30.05S HX  99           
LAUREL         PTSUNNY   90  73  57 S8        30.04F HX  97           
MCCOMB         PTSUNNY   89  75  63 S10       30.03S HX  99           
NATCHEZ        PTSUNNY   88  77  69 SW8       30.01F HX 100           
PINE BELT      FAIR      90  73  57 S9G17     30.05F HX  98           
$$

MSZ080>082-231800-
COASTAL MISSISSIPPI
  
CITY           SKY/WX    TMP DP  RH WIND       PRES   REMARKS
BAY ST LOUIS   MOSUNNY   91  75  59 S9        30.05F HX 102           
BILOXI         FAIR      90  78  68 SW12      30.05F HX 103           
PASCAGOULA     FAIR      92  75  57 SW8       30.06S HX 103           
GULFPORT       FAIR      89  77  67 VRB7G17   30.04F HX 101           
$$

LAZ007>009-015>016-023>026-231800-
NORTHEAST LOUISIANA
  
CITY           SKY/WX    TMP DP  RH WIND       PRES   REMARKS
BASTROP        PTSUNNY   88  74  62 S9G16     29.98R HX  97           
TALLULAH/VBURG FAIR      89  75  63 S12G25    29.99F HX  99           
VIDALIA        FAIR      89  77  67 S12G18    29.99F HX 102           
$$